Torna al catalogo

STARLINK-31471

AttivoComunicazioniVLEO
NORAD 59568·PAYLOAD·🇺🇸 United States

Lanciato Apr 23, 2024 da Cape Canaveral Space Force Station

Loading…

Prossimi Passaggi (prossime 24 ore)

TLE

AggiornatoSource: CelesTrak SupGP

Epoca: Sep 14, 2026, 22:13 UTC

1 59568C 24076E   26257.92618056  .00013518  00000+0  48979-3 0  2575
2 59568  43.0034  20.1539 0001485 275.4481 153.0217 15.27561412    12

Traccia STARLINK-31471 in tempo reale con AllMySat

Download on the App Store